(324) Bamberga(324) Bamberga Epoch 2007 Oct. 27.0 TT = JDT 2454400.5 Goffin M 229.02166 (2000.0) P Q n 0.22425271 Peri. 43.98318 +0.97119304 -0.21537916 a 2.6831456 Node 328.03648 +0.12773852 +0.83175431 e 0.3379570 Incl. 11.10475 +0.20116397 +0.51166061 P 4.40 H 6.82 G 0.09 U 0 From 1129 observations at 62 oppositions, 1892-1997, mean residual 0".53.An explanation of the orbital elements is available.
These orbital elements are also available in forms suitable for loading into a number of popular planetarium-type software programs.
Personalized ephemerides for this object (and others) can be generated using the MPES.
Date TT R. A. (2000) Decl. Delta r Elong. Phase V 2008 04 20 17 10.86 -37 41.3 2.257 2.989 128.6 15.2 11.9 2008 04 25 17 09.36 -38 00.3 2.192 2.974 133.4 14.2 11.8 2008 04 30 17 07.10 -38 17.5 2.131 2.959 138.2 13.1 11.6 2008 05 05 17 04.09 -38 32.4 2.075 2.944 143.0 11.9 11.5 2008 05 10 17 00.36 -38 44.4 2.024 2.928 147.8 10.6 11.4 2008 05 15 16 55.96 -38 52.9 1.978 2.912 152.4 9.2 11.3 2008 05 20 16 50.99 -38 57.4 1.939 2.896 156.7 7.9 11.2 2008 05 25 16 45.56 -38 57.4 1.906 2.880 160.3 6.8 11.1 2008 05 30 16 39.80 -38 52.6 1.880 2.864 162.7 6.0 11.0 2008 06 04 16 33.86 -38 42.9 1.861 2.848 163.4 5.8 10.9 2008 06 09 16 27.92 -38 28.2 1.848 2.831 162.1 6.3 10.9 2008 06 14 16 22.16 -38 09.1 1.842 2.815 159.2 7.4 11.0 2008 06 19 16 16.72 -37 45.9 1.843 2.798 155.2 8.7 11.0 2008 06 24 16 11.75 -37 19.4 1.849 2.781 150.8 10.3 11.1 2008 06 29 16 07.37 -36 50.4 1.862 2.764 146.0 11.9 11.2 2008 07 04 16 03.68 -36 19.8 1.880 2.747 141.1 13.4 11.2 2008 07 09 16 00.74 -35 48.4 1.903 2.729 136.2 14.9 11.3 2008 07 14 15 58.61 -35 17.0 1.931 2.712 131.3 16.4 11.4 2008 07 19 15 57.29 -34 46.3 1.963 2.694 126.5 17.6 11.4 2008 07 24 15 56.78 -34 16.8 1.998 2.676 121.8 18.8 11.5 2008 07 29 15 57.07 -33 49.0 2.036 2.659 117.2 19.9 11.6 2008 08 03 15 58.14 -33 23.1 2.077 2.641 112.8 20.8 11.6 2008 08 08 15 59.96 -32 59.3 2.119 2.623 108.4 21.5 11.7 2008 08 13 16 02.50 -32 37.7 2.163 2.605 104.2 22.2 11.7 2008 08 18 16 05.72 -32 18.2 2.208 2.586 100.2 22.7 11.8 2008 08 23 16 09.57 -32 00.7 2.254 2.568 96.2 23.0 11.8 2008 08 28 16 14.02 -31 45.2 2.300 2.550 92.3 23.3 11.9